1483563600.37,27800,8.06,71206.0,-15.09,-16.03,-16.03,0,*60
1483563601.61,27801,8.06,71206.0,-15.09,-16.03,-15.99,0,*61
1483563602.82,27802,8.06,71202.0,-15.07,-15.99,-15.95,0,*60
1483563604.06,27803,8.06,71206.5,-15.09,-16.03,-16.03,0,*63
1483563605.27,27804,8.06,71206.8,-15.07,-16.03,-16.03,0,*6A
1483563606.51,27805,8.06,71210.8,-15.09,-16.03,-16.03,0,*65
1483563607.78,27806,8.06,71214.5,-15.09,-16.13,-15.99,0,*67
1483563609.02,27807,8.06,71212.8,-15.09,-15.99,-15.95,0,*6B
1483563610.27,27808,8.06,71208.5,-15.09,-16.03,-15.95,0,*64
1483563611.51,27809,8.06,71214.3,-15.09,-16.03,-15.99,0,*69
1483563612.74,27810,8.06,71226.3,-15.09,-15.99,-16.03,0,*61
1483563613.97,27811,8.06,71216.8,-15.09,-15.99,-16.03,0,*60
1483563615.22,27812,8.06,71210.5,-15.09,-16.03,-16.03,0,*63
1483563616.48,27813,8.13,71206.5,-15.09,-16.03,-16.13,0,*63
1483563617.75,27814,8.06,71200.5,-15.09,-16.13,-16.03,0,*64
1483563618.99,27815,8.06,71232.5,-15.09,-16.03,-16.03,0,*64
1483563620.24,27816,8.06,71226.0,-15.09,-16.03,-16.03,0,*67
1483563621.5,27817,8.06,71212.8,-15.07,-16.09,-16.13,0,*63
1483563622.77,27818,8.06,71216.8,-15.09,-16.17,-16.03,0,*6C
1483563623.98,27819,8.06,71208.0,-15.07,-15.99,-15.99,0,*66
1483563625.22,27820,8.06,71208.3,-15.07,-16.09,-15.99,0,*66
1483563626.46,27821,8.06,71218.0,-15.09,-16.03,-15.99,0,*63
1483563627.71,27822,8.06,71214.8,-15.07,-16.09,-15.95,0,*68
1483563628.97,27823,8.06,71204.3,-15.07,-16.23,-16.09,0,*67
1483563630.24,27824,8.06,71208.0,-15.09,-16.17,-16.03,0,*63
1483563631.51,27825,8.06,71204.3,-15.09,-16.17,-16.03,0,*62
1483563632.78,27826,8.06,71204.8,-15.09,-16.13,-16.03,0,*65
1483563633.99,27827,8.06,71206.5,-15.07,-15.99,-15.99,0,*6B
1483563635.23,27828,8.06,71200.8,-15.07,-16.09,-15.99,0,*6E
1483563636.47,27829,8.13,71198.0,-15.07,-16.09,-15.99,0,*6F
1483563637.71,27830,8.06,71200.3,-15.09,-16.03,-16.03,0,*63
1483563638.98,27831,8.06,71194.8,-15.09,-16.03,-16.13,0,*63
1483563640.22,27832,8.06,71202.8,-15.09,-16.03,-16.03,0,*61
1483563641.49,27833,8.06,71192.0,-15.09,-16.13,-16.03,0,*61
1483563642.73,27834,8.06,71204.5,-15.09,-16.03,-16.03,0,*67
1483563644.02,27835,8.06,71194.8,-15.09,-16.17,-16.13,0,*62
1483563645.3,27836,8.06,71192.0,-15.09,-16.13,-16.03,0,*64
1483563646.56,27837,8.06,71204.5,-15.09,-16.03,-16.13,0,*65
1483563647.86,27838,8.06,71194.3,-15.09,-16.17,-16.13,0,*6F
1483563649.15,27839,8.06,71198.0,-15.09,-16.27,-16.17,0,*69
1483563650.45,27840,8.13,71198.0,-15.09,-16.17,-16.13,0,*60
1483563651.72,27841,8.06,71186.3,-15.07,-16.13,-16.09,0,*60
1483563653.02,27842,8.06,71194.8,-15.09,-16.27,-16.17,0,*65
1483563654.28,27843,8.06,71204.8,-15.07,-16.13,-16.13,0,*69
1483563655.58,27844,8.06,71198.0,-15.09,-16.27,-16.17,0,*63
1483563656.88,27845,8.06,71192.0,-15.09,-16.27,-16.17,0,*62
1483563658.17,27846,8.06,71194.8,-15.09,-16.17,-16.17,0,*62
1483563659.44,27847,8.06,71196.3,-15.07,-16.13,-16.13,0,*6D
1483563660.74,27848,8.06,71200.3,-15.09,-16.17,-16.13,0,*68
1483563662.03,27849,8.06,71204.0,-15.09,-16.17,-16.13,0,*69
1483563663.33,27850,8.06,71202.3,-15.09,-16.13,-16.13,0,*65
1483563664.6,27851,8.06,71196.3,-15.09,-16.03,-16.17,0,*61
1483563665.84,27852,8.06,71184.5,-15.09,-16.03,-16.03,0,*67
1483563667.08,27853,8.06,71180.8,-15.09,-16.03,-16.03,0,*66
1483563668.32,27854,8.06,71188.8,-15.13,-16.03,-16.03,0,*6A
1483563669.57,27855,8.06,71184.0,-15.09,-16.03,-15.95,0,*6C
1483563670.78,27856,8.06,71178.8,-15.07,-15.95,-15.99,0,*61
1483563672.01,27857,8.06,71178.0,-15.09,-15.99,-15.99,0,*62
1483563673.26,27858,8.06,71186.5,-15.09,-15.95,-15.95,0,*6D
1483563674.5,27859,8.06,71190.0,-15.09,-15.95,-15.99,0,*60
1483563675.73,27860,8.06,71188.5,-15.09,-15.99,-15.99,0,*66
1483563676.97,27861,8.06,71202.8,-15.09,-15.99,-15.95,0,*6B
1483563678.21,27862,8.06,71204.3,-15.09,-15.99,-15.95,0,*68
1483563679.44,27863,8.06,71212.8,-15.09,-15.99,-15.99,0,*65
1483563680.68,27864,8.06,71206.3,-15.09,-15.99,-15.99,0,*62
1483563681.91,27865,8.06,71202.8,-15.09,-15.99,-15.99,0,*63
1483563683.18,27866,8.06,71202.3,-15.07,-15.89,-15.89,0,*6E
1483563684.41,27867,8.06,71204.0,-15.07,-15.95,-15.89,0,*62
1483563685.63,27868,8.06,71204.3,-15.07,-15.95,-15.95,0,*60
1483563686.86,27869,8.06,71200.8,-15.09,-15.99,-15.99,0,*6F
1483563688.1,27870,8.06,71204.8,-15.09,-15.99,-16.03,0,*67
1483563689.33,27871,8.06,71210.0,-15.09,-15.99,-15.99,0,*66
1483563690.54,27872,8.06,71208.0,-15.07,-15.99,-15.95,0,*67
1483563691.75,27873,8.06,71204.0,-15.07,-15.99,-15.95,0,*66
1483563692.96,27874,8.06,71204.5,-15.07,-15.99,-15.95,0,*61
1483563694.18,27875,8.06,71208.0,-15.07,-15.95,-15.95,0,*6C
1483563695.38,27876,8.06,71204.3,-15.07,-15.99,-15.95,0,*63
1483563696.63,27877,8.06,71206.3,-15.07,-16.09,-15.99,0,*64
1483563697.87,27878,8.06,71200.3,-15.07,-16.09,-15.99,0,*6B
1483563699.17,27879,8.06,71206.8,-15.09,-16.13,-16.13,0,*6E
1483563700.46,27880,8.06,71206.3,-15.09,-16.13,-16.13,0,*68
1483563701.7,27881,8.06,71208.3,-15.09,-16.03,-16.03,0,*69
1483563702.91,27882,8.06,71202.3,-15.07,-15.99,-15.95,0,*68
1483563704.21,27883,8.06,71198.5,-15.09,-16.13,-16.13,0,*6B
1483563705.51,27884,8.06,71208.0,-15.09,-16.13,-16.13,0,*6C
1483563706.8,27885,8.06,71200.3,-15.09,-16.13,-16.13,0,*6D
1483563708.1,27886,8.06,71196.8,-15.09,-16.13,-16.13,0,*6E
1483563709.37,27887,8.06,71196.8,-15.09,-16.13,-16.03,0,*6E
1483563710.61,27888,8.06,71200.5,-15.09,-16.03,-16.03,0,*60
1483563711.86,27889,8.06,71206.3,-15.09,-15.95,-15.95,0,*61
1483563713.1,27890,8.06,71200.0,-15.07,-15.95,-15.89,0,*6A
1483563714.34,27891,8.06,71204.5,-15.09,-15.95,-15.95,0,*68
1483563715.61,27892,8.06,71204.5,-15.09,-15.95,-15.85,0,*6A
1483563716.85,27893,8.06,71202.0,-15.07,-15.95,-15.81,0,*61
1483563718.09,27894,8.06,71204.3,-15.09,-15.95,-15.99,0,*61
1483563719.31,27895,8.06,71206.8,-15.07,-15.95,-15.75,0,*6C
1483563720.57,27896,8.06,71206.8,-15.07,-15.89,-15.89,0,*61
1483563721.79,27897,8.06,71206.3,-15.07,-15.95,-15.95,0,*60
1483563723.0,27898,8.06,71206.5,-15.07,-15.99,-15.95,0,*63
1483563724.2,27899,8.06,71204.0,-15.07,-15.99,-15.99,0,*6E
1483563725.47,27900,8.06,71200.3,-15.09,-16.13,-16.03,0,*60
1483563726.72,27901,8.06,71202.0,-15.07,-16.09,-15.99,0,*64
1483563727.99,27902,8.06,71206.8,-15.07,-16.13,-16.09,0,*66
1483563729.23,27903,8.06,71208.0,-15.07,-16.09,-15.99,0,*66
1483563730.43,27904,8.06,71204.8,-15.07,-15.99,-15.99,0,*6B
1483563731.7,27905,8.06,71206.5,-15.09,-16.13,-16.03,0,*65
1483563732.91,27906,8.06,71208.8,-15.07,-15.99,-15.99,0,*69
1483563734.15,27907,8.06,71208.3,-15.09,-15.99,-15.95,0,*6A
1483563735.39,27908,8.06,71208.0,-15.09,-15.95,-15.95,0,*69
1483563736.66,27909,8.06,71208.8,-15.09,-15.95,-15.85,0,*69
1483563737.9,27910,8.06,71210.0,-15.07,-15.95,-15.81,0,*6B
1483563739.17,27911,8.06,71206.0,-15.07,-15.89,-15.89,0,*6F
1483563740.44,27912,8.06,71208.0,-15.09,-15.85,-15.95,0,*63
1483563741.68,27913,8.06,71208.3,-15.07,-15.95,-15.81,0,*68
1483563742.9,27914,8.06,71204.8,-15.07,-15.95,-15.95,0,*6A
1483563744.16,27915,8.06,71208.8,-15.09,-15.99,-15.85,0,*68
1483563745.42,27916,8.06,71210.5,-15.09,-15.99,-15.85,0,*6B
1483563746.69,27917,8.06,71208.5,-15.07,-15.81,-15.81,0,*69
1483563747.93,27918,8.06,71210.8,-15.07,-15.81,-15.75,0,*6D
1483563749.2,27919,8.06,71212.0,-15.09,-15.95,-15.85,0,*68
1483563750.41,27920,8.06,71212.0,-15.07,-15.95,-15.75,0,*63
1483563751.71,27921,8.06,71214.5,-15.05,-15.89,-15.89,0,*6E
1483563752.97,27922,8.06,71210.3,-15.05,-15.95,-15.89,0,*60
1483563754.21,27923,8.06,71218.0,-15.07,-15.95,-15.89,0,*63
1483563755.48,27924,8.06,71216.8,-15.07,-15.89,-15.89,0,*69
1483563756.74,27925,8.06,71216.8,-15.07,-15.89,-15.89,0,*68
1483563758.0,27926,8.06,71216.3,-15.07,-15.81,-15.89,0,*63
1483563759.24,27927,8.06,71216.0,-15.07,-15.81,-15.75,0,*61
1483563760.51,27928,8.06,71220.8,-15.07,-15.89,-15.81,0,*6D
1483563761.75,27929,8.06,71226.0,-15.07,-15.89,-15.75,0,*67
1483563762.99,27930,8.06,71224.5,-15.07,-15.81,-15.75,0,*67
1483563764.26,27931,8.06,71228.3,-15.05,-15.89,-15.95,0,*62
1483563765.53,27932,8.06,71230.5,-15.05,-15.95,-15.89,0,*61
1483563766.77,27933,8.06,71224.5,-15.03,-15.95,-15.89,0,*66
1483563768.02,27934,8.06,71232.0,-15.05,-15.95,-15.95,0,*6A
1483563769.26,27935,8.06,71232.0,-15.05,-15.95,-15.95,0,*6B
1483563770.53,27936,8.06,71228.3,-15.05,-15.95,-15.89,0,*65
1483563771.77,27937,8.06,71230.3,-15.05,-15.95,-15.95,0,*69
1483563773.02,27938,8.06,71224.5,-15.05,-15.95,-15.95,0,*66
1483563774.31,27939,8.06,71226.5,-15.05,-15.89,-15.89,0,*67
1483563775.56,27940,8.06,71226.5,-15.05,-15.95,-15.95,0,*69
1483563776.77,27941,8.06,71226.5,-15.03,-15.95,-15.99,0,*62
1483563778.01,27942,8.06,71224.3,-15.05,-15.95,-15.99,0,*67
1483563779.25,27943,8.06,71230.3,-15.05,-15.95,-15.99,0,*66
1483563780.49,27944,8.06,71230.8,-15.05,-15.95,-15.99,0,*61
1483563781.73,27945,8.06,71228.8,-15.05,-15.95,-15.99,0,*60
1483563783.0,27946,8.06,71238.0,-15.05,-15.89,-15.99,0,*6E
1483563784.24,27947,8.06,71236.3,-15.05,-15.99,-15.99,0,*6E
1483563785.48,27948,8.06,71242.8,-15.05,-15.95,-15.95,0,*61
1483563786.75,27949,8.06,71244.8,-15.05,-16.09,-15.99,0,*6A
1483563788.06,27950,8.06,71242.3,-15.05,-16.09,-16.09,0,*68
1483563789.27,27951,8.06,71238.8,-15.03,-15.95,-15.99,0,*63
1483563790.5,27952,8.06,71236.5,-15.05,-15.99,-15.99,0,*6A
1483563791.74,27953,8.06,71234.5,-15.05,-15.99,-15.99,0,*6B
1483563793.04,27954,8.06,71226.8,-15.05,-16.09,-16.09,0,*6C
1483563794.31,27955,8.06,71216.8,-15.05,-16.09,-15.99,0,*67
1483563795.54,27956,8.06,71204.3,-15.05,-15.99,-15.99,0,*6E
1483563796.81,27957,8.06,71208.0,-15.05,-15.99,-15.89,0,*6E
1483563798.07,27958,8.06,71214.5,-15.05,-15.99,-15.89,0,*61
1483563799.31,27959,8.06,71216.3,-15.05,-15.99,-15.95,0,*6D
1483563800.54,27960,8.06,71216.8,-15.05,-15.99,-15.95,0,*67
1483563801.78,27961,8.06,71220.0,-15.05,-15.99,-15.95,0,*66
1483563803.08,27962,8.06,71222.0,-15.05,-15.89,-15.89,0,*69
1483563804.34,27963,8.06,71216.0,-15.05,-15.95,-15.89,0,*65
1483563805.61,27964,8.06,71214.3,-15.05,-15.95,-15.89,0,*62
1483563806.91,27965,8.06,71218.8,-15.05,-15.89,-15.89,0,*6E
1483563808.2,27966,8.06,71228.3,-15.05,-15.89,-15.81,0,*65
1483563809.5,27967,8.06,71228.5,-15.05,-15.89,-15.89,0,*6C
1483563810.79,27968,8.06,71222.3,-15.05,-15.89,-15.89,0,*63
1483563812.06,27969,8.06,71216.3,-15.05,-15.95,-15.89,0,*6F
1483563813.36,27970,8.06,71218.3,-15.05,-15.89,-15.89,0,*6A
1483563814.6,27971,8.06,71216.5,-15.05,-15.95,-15.95,0,*6B
1483563815.82,27972,8.06,71222.8,-15.03,-15.95,-15.95,0,*6E
1483563817.08,27973,8.06,71224.3,-15.03,-15.89,-15.89,0,*6F
1483563818.36,27974,8.06,71224.8,-15.05,-15.89,-15.95,0,*63
1483563819.6,27975,8.06,71224.5,-15.05,-15.95,-15.95,0,*6F
1483563820.84,27976,8.06,71224.8,-15.05,-15.99,-15.99,0,*6C
1483563822.14,27977,8.06,71220.0,-15.05,-16.09,-16.09,0,*6D
1483563823.37,27978,8.06,71212.0,-15.05,-15.99,-15.99,0,*62
1483563824.64,27979,8.06,71218.5,-15.05,-16.09,-15.99,0,*69
1483563825.92,27980,8.06,71222.0,-15.03,-16.09,-16.09,0,*63
1483563827.15,27981,8.06,71218.0,-15.05,-15.99,-15.99,0,*64
1483563828.45,27982,8.06,71220.8,-15.05,-16.09,-16.09,0,*67
1483563829.7,27983,8.06,71212.8,-15.03,-16.13,-15.99,0,*61
1483563830.99,27984,8.06,71206.3,-15.05,-16.13,-16.23,0,*62
1483563832.26,27985,8.06,71198.0,-15.03,-16.23,-16.13,0,*65
1483563833.56,27986,8.06,71198.0,-15.05,-16.13,-16.13,0,*63
1483563834.85,27987,8.06,71184.0,-15.05,-16.23,-16.13,0,*61
1483563836.11,27988,8.06,71190.0,-15.03,-16.23,-16.13,0,*68
1483563837.38,27989,8.06,71186.3,-15.05,-16.09,-15.99,0,*66
1483563838.62,27990,8.06,71166.8,-15.05,-15.99,-15.99,0,*64
1483563839.85,27991,8.06,71190.0,-15.05,-15.99,-15.99,0,*65
1483563841.09,27992,8.06,71206.5,-15.05,-15.99,-15.99,0,*66
1483563842.39,27993,8.06,71186.5,-15.05,-16.13,-16.09,0,*6C
1483563843.69,27994,8.06,71154.0,-15.05,-16.13,-16.09,0,*6B
1483563844.95,27995,8.06,71160.0,-15.07,-16.23,-16.13,0,*60
1483563846.22,27996,8.06,71182.0,-15.07,-16.13,-16.09,0,*6B
1483563847.43,27997,8.06,71176.8,-15.07,-15.99,-15.99,0,*61
1483563848.63,27998,8.06,71186.0,-15.07,-15.99,-15.99,0,*6E
1483563849.84,27999,8.06,71206.3,-15.07,-15.95,-15.99,0,*63
1483563851.08,28000,8.06,71200.0,-15.07,-16.03,-16.13,0,*68
1483563852.29,28001,8.06,71212.3,-15.07,-15.99,-15.99,0,*68
1483563853.49,28002,8.06,71206.3,-15.07,-15.99,-15.99,0,*6B
1483563854.76,28003,8.06,71194.5,-15.09,-16.13,-16.03,0,*65
1483563855.97,28004,8.06,71192.0,-15.07,-15.99,-15.99,0,*6D
1483563857.24,28005,8.06,71188.3,-15.07,-16.09,-16.09,0,*6C
1483563858.44,28006,8.06,71176.5,-15.07,-15.99,-15.99,0,*6F
1483563859.65,28007,8.06,71176.3,-15.07,-15.99,-15.99,0,*6E
1483563860.89,28008,8.06,71186.0,-15.07,-15.99,-16.09,0,*6B
1483563862.15,28009,8.06,71194.5,-15.07,-16.13,-16.13,0,*60
1483563863.45,28010,8.06,71194.8,-15.05,-16.13,-16.09,0,*61
1483563864.72,28011,8.06,71190.3,-15.07,-16.13,-16.13,0,*69
1483563865.96,28012,8.06,71198.3,-15.07,-16.09,-15.99,0,*60
1483563867.23,28013,8.06,71190.5,-15.09,-16.17,-16.03,0,*60
1483563868.5,28014,8.06,71194.8,-15.07,-16.13,-16.09,0,*67
1483563869.78,28015,8.06,71176.5,-15.07,-16.13,-16.09,0,*66
1483563871.05,28016,8.06,71192.8,-15.07,-16.09,-16.09,0,*6E
1483563872.32,28017,8.06,71180.5,-15.07,-16.13,-16.09,0,*64
1483563873.59,28018,8.06,71152.8,-15.09,-16.17,-16.03,0,*6B
1483563874.86,28019,8.06,71162.0,-15.07,-16.13,-16.09,0,*6A
1483563876.1,28020,8.06,71176.0,-15.07,-16.09,-15.99,0,*61
1483563877.34,28021,8.06,71180.5,-15.07,-16.09,-15.99,0,*60
1483563878.58,28022,8.06,71184.3,-15.09,-16.03,-16.03,0,*67
1483563879.85,28023,8.06,71212.0,-15.07,-16.09,-16.13,0,*63
1483563881.13,28024,8.06,71204.0,-15.07,-16.09,-16.09,0,*6F
1483563882.33,28025,8.06,71204.0,-15.07,-15.99,-15.99,0,*6E
1483563883.54,28026,8.06,71216.8,-15.07,-15.99,-15.99,0,*6D
1483563884.83,28027,8.06,71206.0,-15.09,-16.13,-16.13,0,*62
1483563886.1,28028,8.06,71210.8,-15.07,-16.09,-16.09,0,*63
1483563887.38,28029,8.06,71200.5,-15.07,-16.09,-16.09,0,*62
1483563888.67,28030,8.06,71196.5,-15.09,-16.13,-16.13,0,*64
1483563889.97,28031,8.06,71196.5,-15.09,-16.13,-16.13,0,*65
1483563891.21,28032,8.06,71194.0,-15.07,-16.09,-15.99,0,*62
1483563892.42,28033,8.06,71196.3,-15.07,-15.99,-15.99,0,*69
1483563893.66,28034,8.06,71192.8,-15.09,-16.03,-16.03,0,*60
1483563894.9,28035,8.06,71190.3,-15.09,-16.03,-16.03,0,*61
1483563896.14,28036,8.06,71190.5,-15.09,-16.03,-16.03,0,*62
1483563897.38,28037,8.06,71194.5,-15.09,-16.03,-16.03,0,*63
1483563898.62,28038,8.06,71190.0,-15.09,-16.03,-16.03,0,*6C
1483563899.83,28039,8.06,71198.0,-15.07,-16.03,-16.03,0,*63
1483563901.04,28040,8.06,71200.3,-15.07,-15.99,-15.99,0,*6D
1483563902.25,28041,8.06,71206.8,-15.07,-15.99,-15.95,0,*60
1483563903.49,28042,8.06,71206.0,-15.07,-15.95,-15.89,0,*62
1483563904.73,28043,8.06,71208.5,-15.09,-15.95,-15.95,0,*60
1483563905.99,28044,8.06,71212.0,-15.07,-15.89,-15.89,0,*69
1483563907.24,28045,8.06,71206.3,-15.09,-16.03,-15.99,0,*66
1483563908.48,28046,8.06,71214.8,-15.09,-16.03,-16.03,0,*65
1483563909.68,28047,8.06,71214.8,-15.07,-15.99,-15.99,0,*6A
1483563910.88,28048,8.06,71212.0,-15.07,-15.99,-15.99,0,*65
1483563912.09,28049,8.06,71216.3,-15.07,-15.99,-15.95,0,*68
1483563913.33,28050,8.06,71222.8,-15.07,-15.99,-15.89,0,*6D
1483563914.54,28051,8.06,71214.8,-15.07,-15.95,-16.03,0,*61
1483563915.74,28052,8.06,71204.3,-15.07,-15.99,-15.99,0,*6E
1483563916.95,28053,8.06,71212.3,-15.07,-15.95,-15.99,0,*63
1483563918.19,28054,8.06,71206.5,-15.09,-15.99,-15.99,0,*66
1483563919.39,28055,8.06,71202.8,-15.07,-15.99,-15.99,0,*69
1483563920.6,28056,8.06,71198.8,-15.07,-15.99,-15.99,0,*6A
1483563921.84,28057,8.06,71202.3,-15.09,-16.03,-15.99,0,*65
1483563923.05,28058,8.06,71200.8,-15.07,-15.95,-15.95,0,*64
1483563924.29,28059,8.06,71202.8,-15.09,-15.99,-15.99,0,*6B
1483563925.52,28060,8.06,71184.3,-15.07,-15.95,-15.89,0,*62
1483563926.79,28061,8.06,71200.5,-15.07,-15.89,-15.89,0,*6E
1483563928.05,28062,8.06,71220.8,-15.07,-15.89,-15.89,0,*6D
1483563929.32,28063,8.06,71230.5,-15.07,-15.89,-15.89,0,*6C
1483563930.56,28064,8.06,71228.3,-15.07,-15.95,-15.89,0,*66
1483563931.76,28065,8.06,71212.3,-15.07,-15.99,-15.95,0,*66
1483563933.01,28066,8.06,71194.8,-15.07,-16.09,-15.99,0,*63
1483563934.22,28067,8.06,71204.5,-15.07,-15.95,-15.99,0,*64
1483563935.43,28068,8.06,71200.0,-15.07,-15.95,-15.99,0,*6B
1483563936.66,28069,8.06,71192.8,-15.07,-15.99,-16.09,0,*6C
1483563937.9,28070,8.06,71168.8,-15.07,-15.99,-16.09,0,*64
1483563939.14,28071,8.06,71178.8,-15.07,-15.99,-16.09,0,*65
1483563940.44,28072,8.06,71200.8,-15.09,-16.13,-16.17,0,*66
1483563941.73,28073,8.13,71196.5,-15.09,-16.13,-16.13,0,*63
1483563943.01,28074,8.06,71178.8,-15.07,-16.09,-16.09,0,*6A
1483563944.3,28075,8.06,71184.8,-15.09,-16.17,-16.17,0,*65
1483563945.55,28076,8.06,71192.0,-15.07,-16.09,-15.99,0,*62
1483563946.78,28077,8.06,71192.5,-15.07,-15.99,-16.09,0,*63
1483563948.05,28078,8.06,71206.0,-15.07,-16.09,-16.09,0,*66
1483563949.29,28079,8.06,71196.3,-15.07,-16.13,-15.99,0,*66
1483563950.56,28080,8.06,71204.0,-15.07,-16.23,-16.09,0,*69
1483563951.83,28081,8.06,71210.8,-15.07,-16.13,-16.13,0,*60
1483563953.1,28082,8.06,71196.8,-15.07,-16.13,-16.09,0,*68
1483563954.36,28083,8.06,71202.5,-15.07,-16.23,-16.13,0,*61
1483563955.66,28084,8.06,71206.5,-15.09,-16.17,-16.17,0,*6B
1483563956.96,28085,8.06,71198.5,-15.09,-16.13,-16.13,0,*6A
1483563958.19,28086,8.06,71210.8,-15.07,-15.99,-16.09,0,*6D
1483563959.46,28087,8.06,71214.8,-15.07,-16.13,-16.13,0,*66
1483563960.76,28088,8.06,71196.8,-15.09,-16.17,-16.17,0,*67
1483563962.05,28089,8.06,71200.3,-15.09,-16.17,-16.27,0,*65
1483563963.35,28090,8.06,71202.0,-15.09,-16.17,-16.17,0,*6E
1483563964.64,28091,8.06,71198.0,-15.09,-16.17,-16.31,0,*6B
1483563965.93,28092,8.06,71202.3,-15.09,-16.31,-16.31,0,*6C
1483563967.17,28093,8.06,71204.0,-15.09,-16.03,-16.03,0,*6D
1483563968.41,28094,8.06,71206.8,-15.09,-16.03,-16.03,0,*6A
1483563969.68,28095,8.06,71194.3,-15.09,-16.13,-16.03,0,*6A
1483563970.92,28096,8.06,71198.8,-15.09,-16.03,-16.03,0,*68
1483563972.13,28097,8.06,71212.5,-15.07,-15.99,-15.99,0,*67
1483563973.33,28098,8.06,71216.0,-15.07,-15.99,-15.99,0,*68
1483563974.57,28099,8.06,71216.0,-15.09,-15.99,-16.03,0,*67
1483563975.78,28100,8.06,71212.5,-15.07,-15.95,-15.99,0,*64
1483563977.02,28101,8.06,71214.0,-15.09,-16.03,-15.99,0,*67
1483563978.29,28102,8.06,71204.3,-15.09,-16.13,-15.99,0,*65
1483563979.53,28103,8.06,71206.8,-15.09,-16.03,-15.99,0,*65
1483563980.8,28104,8.06,71210.5,-15.09,-16.13,-16.03,0,*63
1483563982.01,28105,8.06,71210.8,-15.07,-15.99,-15.99,0,*6D
1483563983.25,28106,8.06,71210.8,-15.09,-16.03,-16.03,0,*60
1483563984.45,28107,8.06,71212.5,-15.07,-15.99,-15.99,0,*6F
1483563985.69,28108,8.06,71214.0,-15.07,-15.89,-15.95,0,*6D
1483563986.96,28109,8.06,71212.5,-15.07,-15.89,-15.89,0,*61
1483563988.17,28110,8.06,71210.5,-15.07,-15.95,-15.95,0,*69
1483563989.42,28111,8.06,71214.8,-15.09,-15.95,-15.95,0,*66
1483563990.66,28112,8.06,71208.8,-15.09,-15.95,-15.95,0,*65
1483563991.9,28113,8.06,71210.0,-15.07,-15.95,-15.89,0,*67
1483563993.12,28114,8.06,71202.5,-15.07,-15.95,-15.95,0,*6D
1483563994.33,28115,8.06,71206.8,-15.07,-15.95,-15.95,0,*6C
1483563995.55,28116,8.06,71208.8,-15.07,-15.95,-15.95,0,*6F
1483563996.81,28117,8.06,71212.3,-15.07,-15.89,-15.89,0,*6E
1483563998.08,28118,8.06,71208.8,-15.07,-15.89,-15.89,0,*61
1483563999.37,28119,8.06,71212.5,-15.05,-15.81,-15.89,0,*6A
1483564000.66,28120,8.06,71214.5,-15.05,-15.89,-15.89,0,*68
1483564001.96,28121,8.06,71214.3,-15.05,-15.89,-15.89,0,*69
1483564003.22,28122,8.06,71216.5,-15.05,-15.95,-15.89,0,*67
1483564004.52,28123,8.06,71214.8,-15.05,-15.89,-15.81,0,*63
1483564005.79,28124,8.06,71216.3,-15.09,-15.95,-15.85,0,*61
1483564007.04,28125,8.06,71220.5,-15.05,-15.95,-15.95,0,*6D
1483564008.3,28126,8.06,71220.0,-15.07,-15.89,-15.89,0,*6C
1483564009.56,28127,8.06,71224.3,-15.07,-15.89,-15.89,0,*6D
1483564010.83,28128,8.06,71226.0,-15.05,-15.95,-15.89,0,*6D
1483564012.08,28129,8.06,71220.5,-15.05,-15.95,-15.95,0,*61
1483564013.32,28130,8.06,71220.3,-15.05,-15.95,-15.99,0,*65
1483564014.56,28131,8.06,71208.5,-15.05,-15.95,-15.99,0,*64
1483564015.79,28132,8.06,71200.0,-15.05,-15.99,-15.99,0,*6B
1483564017.05,28133,8.06,71194.8,-15.05,-15.99,-15.89,0,*6B
1483564018.3,28134,8.06,71208.5,-15.05,-15.95,-15.95,0,*6D
1483564019.54,28135,8.06,71208.8,-15.05,-15.95,-15.95,0,*6C
1483564020.78,28136,8.06,71212.8,-15.05,-15.99,-15.95,0,*63
1483564022.02,28137,8.06,71216.3,-15.05,-15.99,-15.95,0,*62
1483564023.28,28138,8.06,71220.0,-15.05,-15.99,-15.89,0,*60
1483564024.52,28139,8.06,71230.0,-15.05,-15.99,-15.99,0,*60
1483564025.73,28140,8.06,71228.5,-15.07,-15.95,-15.95,0,*6C
1483564026.95,28141,8.06,71230.5,-15.07,-15.95,-15.95,0,*6D
1483564028.16,28142,8.06,71230.5,-15.07,-15.95,-15.95,0,*6E
1483564029.43,28143,8.06,71230.3,-15.07,-16.09,-16.13,0,*64
1483564030.7,28144,8.06,71218.0,-15.07,-16.09,-16.13,0,*63
1483564031.97,28145,8.06,71222.8,-15.07,-16.09,-16.13,0,*62
1483564033.21,28146,8.06,71218.0,-15.07,-16.09,-15.99,0,*60
1483564034.51,28147,8.06,71212.3,-15.05,-16.09,-16.09,0,*69
1483564035.81,28148,8.06,71210.8,-15.05,-16.09,-16.09,0,*66
1483564037.05,28149,8.06,71208.3,-15.05,-15.99,-15.99,0,*67
1483564038.35,28150,8.06,71204.8,-15.05,-16.09,-16.09,0,*6F
1483564039.65,28151,8.06,71204.3,-15.05,-16.09,-16.09,0,*6E
1483564040.92,28152,8.06,71202.3,-15.05,-15.99,-16.09,0,*67
1483564042.19,28153,8.06,71198.8,-15.05,-16.09,-15.99,0,*66
1483564043.46,28154,8.06,71200.3,-15.05,-15.99,-16.09,0,*61
1483564044.7,28155,8.06,71204.8,-15.07,-16.09,-15.99,0,*62
1483564045.93,28156,8.06,71200.3,-15.05,-15.99,-15.99,0,*69
1483564047.17,28157,8.06,71206.0,-15.07,-15.99,-16.09,0,*60
1483564048.37,28158,8.06,71206.0,-15.07,-15.99,-15.99,0,*65
1483564049.64,28159,8.06,71208.8,-15.05,-16.09,-15.99,0,*6C
1483564050.85,28160,8.06,71214.3,-15.03,-15.99,-15.99,0,*6A
1483564052.09,28161,8.06,71218.8,-15.05,-15.99,-15.95,0,*61
1483564053.3,28162,8.06,71218.5,-15.07,-15.95,-15.95,0,*6C
1483564054.54,28163,8.06,71218.5,-15.07,-15.89,-15.95,0,*60
1483564055.76,28164,8.06,71214.8,-15.07,-15.95,-15.95,0,*6A
1483564057.03,28165,8.06,71222.0,-15.07,-16.09,-16.09,0,*6B
1483564058.3,28166,8.06,71228.8,-15.05,-15.99,-16.09,0,*60
1483564059.54,28167,8.06,71238.8,-15.07,-16.09,-15.99,0,*63
1483564060.84,28168,8.06,71224.3,-15.05,-16.09,-16.09,0,*64
1483564062.13,28169,8.06,71230.8,-15.05,-16.23,-16.23,0,*65
1483564063.43,28170,8.06,71210.5,-15.05,-16.13,-16.23,0,*6E
1483564064.72,28171,8.06,71202.3,-15.05,-16.13,-16.13,0,*6C
1483564065.99,28172,8.06,71204.0,-15.07,-16.27,-16.27,0,*6D
1483564067.25,28173,8.06,71206.5,-15.07,-16.27,-16.23,0,*68
1483564068.51,28174,8.06,71198.0,-15.07,-16.27,-16.27,0,*6B
1483564069.77,28175,8.06,71200.5,-15.07,-16.27,-16.27,0,*6A
1483564071.03,28176,8.06,71192.8,-15.07,-16.27,-16.13,0,*6E
1483564072.29,28177,8.06,71194.8,-15.07,-16.27,-16.23,0,*6C
1483564073.55,28178,8.06,71200.5,-15.07,-16.23,-16.23,0,*67
1483564074.81,28179,8.06,71206.8,-15.07,-16.27,-16.23,0,*62
1483564076.03,28180,8.06,71206.5,-15.07,-16.55,-16.41,0,*65
1483564077.27,28181,8.06,71206.0,-15.07,-16.41,-16.27,0,*61
1483564078.49,28182,8.06,71184.0,-15.07,-16.41,-16.37,0,*63
1483564079.75,28183,8.06,71180.5,-15.07,-16.27,-16.13,0,*64
1483564081.05,28184,8.06,71204.5,-15.05,-16.13,-16.09,0,*6D
1483564082.35,28185,8.06,71216.0,-15.05,-16.23,-16.09,0,*6F
1483564083.59,28186,8.06,71208.8,-15.05,-16.37,-16.37,0,*64
1483564084.83,28187,8.06,71218.8,-15.07,-16.51,-16.37,0,*67
1483564086.07,28188,8.06,71208.3,-15.05,-16.55,-16.37,0,*6E
1483564087.36,28189,8.06,71194.0,-15.05,-16.51,-16.23,0,*6E
1483564088.62,28190,8.06,71190.0,-15.05,-16.51,-16.37,0,*63
1483564089.84,28191,8.06,71154.8,-15.07,-16.41,-16.37,0,*61
1483564091.1,28192,8.06,71166.3,-15.07,-16.27,-16.27,0,*63
1483564092.36,28193,8.06,71180.3,-15.07,-16.27,-16.13,0,*65
1483564093.63,28194,8.06,71178.5,-15.07,-16.23,-16.13,0,*66
1483564094.89,28195,8.06,71164.3,-15.07,-16.23,-16.13,0,*67
1483564096.15,28196,8.06,71180.8,-15.07,-16.23,-16.09,0,*6F
1483564097.42,28197,8.06,71196.0,-15.07,-16.23,-16.13,0,*65
1483564098.69,28198,8.06,71178.3,-15.07,-16.09,-16.09,0,*69
1483564099.96,28199,8.06,71180.5,-15.07,-16.13,-16.13,0,*68